Weather History for Anniston, AL

Change the Weather History Date:

Tuesday, February 5, 2013

  Actual Average Record
Temperature  
Mean Temperature 50 °F 45 °F  
Max Temperature 59 °F 56 °F 74 °F (1957)
Min Temperature 41 °F 34 °F 8 °F (1996)
Degree Days  
Heating Degree Days 15    
Month to date heating degree days 113  
Since 1 July heating degree days 1647  
Moisture  
Dew Point 43 °F    
Average Humidity 84    
Maximum Humidity 100    
Minimum Humidity 67    
Precipitation  
Precipitation T in 0.17 in 1.64 in (2004)
Month to date precipitation 0.07 0.88  
Year to date precipitation 8.05 5.40  
Sea Level Pressure  
Sea Level Pressure 30.04 in    
Wind  
Wind Speed 2 mph (WSW)    
Max Wind Speed 12 mph    
Max Gust Speed 14 mph    
Visibility 7 miles    
Events Fog , Rain    
T = Trace of Precipitation, MM = Missing Value Source: NWS Daily Summary

Daily Weather History Graph

Daily Weather History Graph

Search for Another Location

Airport:

Trip Planner

Search our weather history database for the weather conditions in past years. The results will help you decide how hot, cold, wet, or windy it might be!

Date:

Astronomy

Feb. 05, 2013 Rise Set
Actual Time 6:36 AM CST 5:18 PM CST
Civil Twilight 6:10 AM CST 5:44 PM CST
Nautical Twilight 5:41 AM CST 6:14 PM CST
Astronomical Twilight 5:11 AM CST 6:43 PM CST
Moon 2:12 AM CST (2/5) 12:41 PM CST (2/5)
Length of Visible Light 11h 34m
Length of Day
10h 42m
Waning Crescent, 26% of the Moon is Illuminated
Feb 5
Waning Crescent
Feb 10
New
Feb 17
First Quarter
Feb 25
Full
Mar 4
Last Quarter

Hourly Weather History & Observations

Time (CST) Temp. Dew Point Humidity Pressure Visibility Wind Dir Wind Speed Gust Speed Precip Events Conditions
12:53 AM 42.1 °F 34.0 °F 73% 30.01 in 10.0 mi Calm Calm - N/A   Overcast
1:53 AM 42.1 °F 35.1 °F 76% 30.01 in 10.0 mi Calm Calm - N/A   Overcast
2:53 AM 43.0 °F 34.0 °F 71% 29.99 in 10.0 mi Calm Calm - N/A   Overcast
3:53 AM 43.0 °F 35.1 °F 74% 29.99 in 10.0 mi Calm Calm - N/A   Overcast
4:53 AM 44.1 °F 37.9 °F 79% 30.00 in 10.0 mi Calm Calm - N/A   Overcast
5:53 AM 45.0 °F 39.0 °F 80% 30.02 in 10.0 mi Calm Calm - N/A   Overcast
6:53 AM 46.0 °F 39.9 °F 79% 30.04 in 10.0 mi Calm Calm - N/A   Overcast
7:31 AM 46.4 °F 39.2 °F 76% 30.03 in 10.0 mi Calm Calm - N/A   Overcast
7:53 AM 46.9 °F 39.9 °F 77% 30.05 in 10.0 mi Calm Calm - N/A   Overcast
8:53 AM 48.9 °F 43.0 °F 80% 30.06 in 10.0 mi Calm Calm - 0.00 in   Overcast
9:53 AM 52.0 °F 43.0 °F 71% 30.08 in 10.0 mi SW 6.9 mph - N/A   Overcast
10:53 AM 54.0 °F 44.1 °F 69% 30.08 in 10.0 mi Variable 4.6 mph - N/A   Overcast
11:44 AM 57.2 °F 44.6 °F 63% 30.05 in 10.0 mi West 5.8 mph - N/A   Overcast
11:53 AM 57.0 °F 46.0 °F 67% 30.06 in 10.0 mi SW 6.9 mph - N/A   Overcast
12:53 PM 57.0 °F 46.0 °F 67% 30.04 in 10.0 mi WSW 6.9 mph - N/A   Overcast
1:10 PM 57.2 °F 46.4 °F 67% 30.02 in 10.0 mi SW 5.8 mph - N/A   Overcast
1:53 PM 57.9 °F 46.9 °F 67% 30.02 in 10.0 mi SW 4.6 mph - N/A   Overcast
2:53 PM 55.9 °F 50.0 °F 80% 30.01 in 7.0 mi West 5.8 mph - 0.00 in Rain Light Rain
3:53 PM 55.9 °F 50.0 °F 80% 30.01 in 10.0 mi WSW 4.6 mph - 0.00 in   Overcast
4:53 PM 55.0 °F 50.0 °F 83% 30.01 in 10.0 mi SSW 3.5 mph - 0.00 in   Mostly Cloudy
5:53 PM 52.0 °F 48.9 °F 89% 30.01 in 10.0 mi Calm Calm - N/A   Mostly Cloudy
6:53 PM 48.9 °F 48.0 °F 97% 30.03 in 9.0 mi Calm Calm - N/A   Overcast
7:53 PM 50.0 °F 48.0 °F 93% 30.06 in 9.0 mi Calm Calm - N/A   Mostly Cloudy
8:53 PM 50.0 °F 48.0 °F 93% 30.07 in 8.0 mi Calm Calm - N/A   Overcast
9:24 PM 46.4 °F 44.6 °F 93% 30.05 in 1.8 mi Calm Calm - N/A   Partly Cloudy
9:40 PM 46.4 °F 44.6 °F 93% 30.05 in 0.5 mi Calm Calm - N/A Fog Fog
9:53 PM 45.0 °F 44.1 °F 97% 30.07 in 0.2 mi Calm Calm - N/A Fog Fog
10:21 PM 44.6 °F 44.6 °F 100% 30.06 in 0.5 mi Calm Calm - N/A Fog Fog
10:35 PM 44.6 °F 42.8 °F 93% 30.06 in 0.8 mi Calm Calm - N/A   Overcast
10:42 PM 44.6 °F 42.8 °F 93% 30.06 in 2.0 mi Calm Calm - N/A   Overcast
10:45 PM 42.8 °F 42.8 °F 100% 30.06 in 1.8 mi Calm Calm - N/A   Overcast
10:53 PM 45.0 °F 43.0 °F 93% 30.08 in 1.0 mi Calm Calm - N/A   Mostly Cloudy
10:58 PM 44.6 °F 42.8 °F 93% 30.06 in 3.0 mi Calm Calm - N/A   Mostly Cloudy
11:11 PM 44.6 °F 42.8 °F 93% 30.06 in 2.0 mi Calm Calm - N/A   Mostly Cloudy
11:28 PM 42.8 °F 42.8 °F 100% 30.07 in 1.0 mi Calm Calm - N/A   Overcast
11:53 PM 44.1 °F 44.1 °F 100% 30.08 in 0.5 mi Calm Calm - 0.01 in Fog Fog
11:56 PM 44.6 °F 44.6 °F 100% 30.07 in 0.8 mi Calm Calm - N/A   Overcast